[[{"header":{"parameterUnit":"m.s-1","parameterCategory":1,"la1":30.2991,"la2":30.254,"lo1":-89.0895,"lo2":-89.0444,"dy":0.0017,"dx":0.0017,"nx":28,"ny":28,"refTime":"2024-03-04T03:00:00:Z","depth":0,"parameterNumber":2,"parameterNumberName":"U-component_of_WINDS"},"data":[0,0,0,0,0,0,0,0,0,0,0,0,0,0,0,0,0,0,0,0,0,0,0,0,0,0,0,0,0,0,0,0,0,0,0,0,0,0,0,0,0,0,0,0,0,0,0,0,0,0,0,0,0,0,0,0,0,0,0.7515,0.7514,0,0.7464,0.7463,0.7463,0.7369,0.7367,0.7365,0.7364,0.7314,0.7314,0.7314,0,0,0,0,0,0,0,0,0,0,0,0,0,0.7533,0.7534,0.7515,0.7514,0.7513,0.7464,0.7463,0.7463,0.7369,0.7367,0.7365,0.7363,0.7314,0.7314,0.7314,0,0,0,0,0,0,0,0,0,0,0,0,0,0.7508,0.7534,0.7515,0.7461,0.7456,0.7464,0.7463,0.7462,0.737,0.7367,0.7364,0.7362,0.7313,0.7314,0.7314,0.7372,0,0,0.7316,0.7316,0,0,0,0,0,0,0,0,0.751,0.7508,0.747,0.7465,0.7459,0.742,0.7451,0.7432,0.7371,0.7403,0.7364,0.7361,0.7351,0.7349,0.7345,0.737,0.7367,0.7316,0.7316,0.7317,0.7317,0,0,0,0,0,0,0,0.7512,0.7509,0.7495,0.7469,0.7463,0.744,0.7434,0.7447,0.7393,0.7399,0.7393,0.7388,0.7348,0.7345,0.7343,0.7367,0.7316,0.7316,0.7317,0.7317,0.7435,0.7438,0,0,0,0,0,0,0.7521,0.7512,0.7496,0.7493,0.7478,0.7442,0.7435,0.7435,0.7392,0.7383,0.739,0.7384,0.7345,0.7343,0.7341,0.7404,0.7317,0.7317,0.7317,0.7432,0.7435,0.7439,0,0,0,0,0,0,0.7522,0.7521,0.7498,0.75,0.7496,0.7444,0.7446,0.7436,0.7432,0.7385,0.7375,0.7397,0.7343,0.734,0.7364,0.7401,0.7317,0.7318,0.7429,0.7433,0.7437,0.7531,0,0,0,0,0,0,0.7523,0.7521,0.7542,0.7502,0.7496,0.7522,0.7448,0.7437,0.7433,0.7424,0.7389,0.738,0.7341,0.7364,0.7365,0.74,0.7318,0.7425,0.7431,0.7436,0.7525,0.7538,0.755,0,0,0,0,0,0.7524,0.7571,0.7544,0.7542,0.7521,0.7524,0.7521,0.7474,0.7437,0.7457,0.7427,0.7381,0.7398,0.7368,0.7368,0.7404,0.7423,0.7429,0.7435,0.7519,0.7536,0.755,0,0,0,0,0,0,0.7618,0.7565,0.7534,0.7569,0.7552,0.7509,0.7533,0.7493,0.7487,0.7479,0.7421,0.7414,0.7446,0.7427,0.7395,0.7457,0.7403,0.741,0.7467,0.7482,0.7494,0.7497,0.7319,0,0,0,0,0,0.7643,0.765,0.7603,0.7639,0.7632,0.7585,0.7585,0.755,0.753,0.7522,0.7493,0.7476,0.7477,0.7479,0.7478,0.7523,0.7513,0.7548,0.756,0.7571,0.7576,0.7598,0.7612,0.7459,0.7459,0.7459,0,0,0.7694,0.7666,0.7674,0.7658,0.764,0.7649,0.7579,0.7591,0.7597,0.7524,0.7544,0.7523,0.7501,0.7535,0.7549,0.7521,0.7617,0.7579,0.7588,0.7587,0.7606,0.762,0.7633,0.7464,0.7463,0.7462,0,0,0.7792,0.7772,0.7799,0.7783,0.7757,0.7725,0.7732,0.7695,0.7678,0.7697,0.7642,0.765,0.7653,0.7638,0.7631,0.7725,0.7682,0.7727,0.7791,0.7813,0.7825,0.7835,0.7867,0.7879,0.7733,0.7733,0.7733,0,0.7858,0.7868,0.7818,0.7833,0.7827,0.7762,0.7789,0.7777,0.7752,0.775,0.7719,0.7721,0.7702,0.7731,0.7754,0.7752,0.7757,0.7729,0.7827,0.7837,0.7846,0.7875,0.7888,0.7738,0.7738,0.7737,0.7737,0,0.7951,0.796,0.7985,0.7962,0.7959,0.7981,0.7934,0.7938,0.7904,0.7876,0.7897,0.7871,0.7862,0.7868,0.7835,0.7893,0.7876,0.7838,0.7782,0.7867,0.7893,0.7904,0.7746,0.7744,0.7743,0.7741,0,0,0.8104,0.8054,0.8063,0.8052,0.802,0.8025,0.8044,0.8035,0.8039,0.8026,0.8039,0.8044,0.8008,0.8,0.7966,0.7985,0.8059,0.7944,0.7942,0.7964,0.8119,0.8147,0.8161,0.8032,0.8034,0.8036,0.8121,0,0.8192,0.822,0.8176,0.8214,0.822,0.816,0.8176,0.8158,0.8133,0.8136,0.8108,0.8111,0.8064,0.8059,0.8076,0.8047,0.8089,0.804,0.8043,0.8044,0.8048,0.8175,0.8204,0.8285,0.8131,0.8133,0.8134,0,0.8298,0.8288,0.8327,0.8292,0.8293,0.8309,0.8297,0.83,0.828,0.826,0.8252,0.8211,0.8228,0.8177,0.8198,0.8166,0.8165,0.8151,0.8153,0.8149,0.8092,0.8172,0.831,0.8321,0.815,0.8149,0.8148,0,0.8402,0.84,0.8422,0.8415,0.8375,0.8387,0.8372,0.8348,0.8346,0.8336,0.8334,0.8328,0.8323,0.8319,0.8278,0.8245,0.8304,0.825,0.8287,0.8288,0.83,0.8299,0.8437,0.8305,0.8304,0.8304,0.8304,0,0.8504,0.8529,0.8468,0.8482,0.8509,0.8459,0.8488,0.8466,0.8446,0.8454,0.8403,0.8412,0.8358,0.8362,0.833,0.8352,0.8351,0.8335,0.8326,0.8338,0.834,0.8335,0.8327,0.8307,0.8307,0.8306,0.8305,0,0.8623,0.8584,0.8604,0.8565,0.8556,0.8578,0.8545,0.8556,0.8528,0.854,0.854,0.8496,0.8498,0.8457,0.8451,0.843,0.8465,0.8447,0.8471,0.8464,0.8503,0.8499,0.864,0.8655,0.8516,0.8518,0.8519,0,0.8689,0.8707,0.867,0.8672,0.8659,0.8663,0.866,0.8613,0.8612,0.859,0.8604,0.8602,0.8596,0.8602,0.857,0.8565,0.8545,0.8595,0.8544,0.8555,0.8543,0.8541,0.8542,0.8605,0.8606,0.8608,0.8609,0,0.8809,0.8789,0.8786,0.8778,0.8776,0.8767,0.8754,0.8759,0.8708,0.871,0.871,0.8707,0.87,0.8698,0.8687,0.8671,0.8632,0.8626,0.8634,0.8645,0.8657,0.8649,0.8497,0.8622,0.8621,0.862,0.8619,0.8619,0.8901,0.8914,0.8891,0.889,0.8876,0.8866,0.8874,0.8848,0.8847,0.8838,0.8811,0.8816,0.8795,0.8776,0.8764,0.8768,0.8743,0.8755,0.8758,0.8761,0.8767,0.866,0.8766,0.8766,0.8765,0.8765,0.8765,0,0.9016,0.8999,0.8999,0.8983,0.8983,0.8946,0.8931,0.8933,0.8938,0.8922,0.8919,0.892,0.8918,0.8886,0.888,0.8889,0.8871,0.8889,0.8886,0.8883,0.8791,0.8783,0.8904,0.8904,0.8904,0.8904,0.8904,0.8904,0.9076,0.9095,0.9073,0.9085,0.9067,0.9072,0.9066,0.9056,0.9043,0.9046,0.9044,0.9024,0.9002,0.8994,0.8991,0.8982,0.8981,0.9005,0.8989,0.8903,0.889,0.8877,0.8869,0.9006,0.9006,0.9081,0.9081,0.9082]},{"header":{"parameterUnit":"m.s-1","parameterCategory":1,"la1":30.2991,"la2":30.254,"lo1":-89.0895,"lo2":-89.0444,"dy":0.0017,"dx":0.0017,"nx":28,"ny":28,"refTime":"2024-03-04T03:00:00:Z","depth":0,"parameterNumber":3,"parameterNumberName":"V-component_of_WINDS"},"data":[0,0,0,0,0,0,0,0,0,0,0,0,0,0,0,0,0,0,0,0,0,0,0,0,0,0,0,0,0,0,0,0,0,0,0,0,0,0,0,0,0,0,0,0,0,0,0,0,0,0,0,0,0,0,0,0,0,0,0.5437,0.5436,0,0.529,0.5288,0.5287,0.5201,0.52,0.52,0.52,0.5047,0.5043,0.504,0,0,0,0,0,0,0,0,0,0,0,0,0,0.5645,0.5642,0.5438,0.5436,0.5434,0.529,0.5288,0.5286,0.5201,0.52,0.52,0.5199,0.5048,0.5044,0.5039,0,0,0,0,0,0,0,0,0,0,0,0,0,0.5532,0.5641,0.5438,0.5374,0.5367,0.5291,0.5288,0.5286,0.5201,0.52,0.52,0.5199,0.505,0.5044,0.5039,0.5014,0,0,0.5021,0.5019,0,0,0,0,0,0,0,0,0.5539,0.5525,0.5385,0.5378,0.537,0.5263,0.5305,0.5195,0.5201,0.5264,0.5199,0.5199,0.5119,0.5108,0.5081,0.5007,0.5,0.5021,0.5018,0.5015,0.5014,0,0,0,0,0,0,0,0.5547,0.5531,0.5379,0.5383,0.5374,0.5353,0.5336,0.5284,0.5196,0.5258,0.5252,0.5235,0.5115,0.5087,0.5077,0.4998,0.5021,0.5016,0.5013,0.501,0.4897,0.4897,0,0,0,0,0,0,0.5565,0.5538,0.5384,0.5375,0.5455,0.5349,0.5331,0.5298,0.5196,0.518,0.5236,0.5232,0.5097,0.5084,0.5071,0.5035,0.5015,0.501,0.5007,0.4897,0.4897,0.4897,0,0,0,0,0,0,0.557,0.5552,0.539,0.5454,0.5432,0.5346,0.531,0.5295,0.5267,0.518,0.5163,0.5223,0.5096,0.5079,0.5029,0.5029,0.5007,0.5002,0.4896,0.4897,0.4897,0.4964,0,0,0,0,0,0,0.5576,0.5554,0.5544,0.5455,0.5429,0.535,0.531,0.5293,0.5258,0.5251,0.5163,0.5148,0.5094,0.5038,0.5024,0.5021,0.4998,0.4896,0.4896,0.4897,0.4962,0.4967,0.4972,0,0,0,0,0,0.5584,0.5568,0.5544,0.5526,0.5414,0.535,0.5336,0.5274,0.5258,0.5247,0.5191,0.5151,0.5032,0.5034,0.5017,0.5012,0.4895,0.4896,0.4897,0.4959,0.4966,0.4972,0,0,0,0,0,0,0.5659,0.5555,0.5527,0.5482,0.5426,0.5336,0.532,0.5283,0.5229,0.5225,0.515,0.5131,0.5088,0.5045,0.5049,0.4984,0.4959,0.4957,0.5013,0.5018,0.5023,0.5033,0.4993,0,0,0,0,0,0.567,0.5627,0.5539,0.5508,0.5482,0.5406,0.5376,0.5334,0.5272,0.5247,0.5187,0.5129,0.5078,0.5046,0.4995,0.4956,0.4935,0.4945,0.495,0.4954,0.4952,0.4929,0.4932,0.49,0.49,0.49,0,0,0.5693,0.5632,0.5609,0.5522,0.5473,0.543,0.5386,0.5343,0.531,0.524,0.5189,0.5144,0.5074,0.5029,0.5007,0.4992,0.4957,0.4955,0.496,0.4955,0.493,0.4933,0.4936,0.4901,0.49,0.49,0,0,0.5713,0.5662,0.5631,0.5583,0.551,0.5461,0.5454,0.5369,0.5337,0.5285,0.5232,0.5192,0.5106,0.5058,0.5023,0.5027,0.4988,0.5012,0.5037,0.5015,0.5018,0.502,0.502,0.5021,0.5011,0.5011,0.5011,0,0.575,0.5683,0.5619,0.5578,0.5542,0.5479,0.5446,0.5403,0.5317,0.5293,0.5279,0.517,0.5119,0.5062,0.5064,0.5037,0.5026,0.5021,0.5023,0.5024,0.5025,0.5024,0.5025,0.5015,0.5014,0.5014,0.5013,0,0.5732,0.5687,0.5671,0.559,0.5552,0.5516,0.5446,0.5415,0.5377,0.5329,0.5277,0.5213,0.5148,0.5132,0.5094,0.507,0.5063,0.5037,0.5011,0.5032,0.503,0.503,0.5019,0.5018,0.5017,0.5016,0,0,0.5792,0.5678,0.5673,0.5636,0.5552,0.5516,0.5477,0.5414,0.5389,0.5333,0.5298,0.5228,0.5203,0.5163,0.5119,0.51,0.5107,0.5076,0.5073,0.5083,0.5076,0.5095,0.5096,0.5081,0.5081,0.5081,0.5082,0,0.5798,0.5726,0.5668,0.5617,0.5574,0.5515,0.5481,0.5426,0.5381,0.5338,0.5288,0.5239,0.5211,0.5186,0.5165,0.511,0.5104,0.511,0.5047,0.5046,0.5065,0.5095,0.5115,0.5119,0.5081,0.5081,0.508,0,0.5795,0.5742,0.5687,0.5608,0.5588,0.5559,0.5496,0.5457,0.5393,0.5362,0.5318,0.5273,0.523,0.521,0.5149,0.5154,0.5126,0.5096,0.5094,0.5084,0.5063,0.5085,0.5118,0.5119,0.5079,0.5079,0.5079,0,0.5843,0.5757,0.5713,0.5684,0.5591,0.5572,0.5533,0.5469,0.5435,0.5381,0.5358,0.53,0.5268,0.5223,0.5164,0.5155,0.5109,0.5084,0.5081,0.5082,0.5072,0.5073,0.51,0.5057,0.5057,0.5057,0.5057,0,0.5854,0.5823,0.5734,0.5706,0.567,0.5605,0.557,0.5525,0.547,0.5433,0.5378,0.5345,0.5269,0.5226,0.518,0.5136,0.5122,0.5095,0.5082,0.5099,0.5102,0.5077,0.5075,0.5057,0.5057,0.5057,0.5057,0,0.59,0.584,0.5787,0.5705,0.5684,0.566,0.5589,0.556,0.5514,0.5467,0.5453,0.5379,0.5326,0.5263,0.5189,0.5158,0.5118,0.51,0.5139,0.5132,0.5131,0.5132,0.5142,0.5139,0.5101,0.5101,0.5102,0,0.5911,0.5885,0.58,0.5772,0.5734,0.5689,0.5655,0.5591,0.5557,0.5484,0.5464,0.5408,0.5358,0.5277,0.5216,0.516,0.5139,0.5147,0.513,0.5148,0.5138,0.514,0.5136,0.5151,0.5151,0.5152,0.5153,0,0.5935,0.5907,0.5859,0.5802,0.5762,0.5713,0.5662,0.5642,0.5568,0.5533,0.5478,0.5441,0.5367,0.5311,0.5247,0.5206,0.5167,0.5159,0.5155,0.517,0.5193,0.5179,0.5149,0.5158,0.5158,0.5157,0.5157,0.5157,0.5962,0.5937,0.5874,0.5823,0.5778,0.5732,0.5701,0.5651,0.5605,0.554,0.5505,0.5452,0.539,0.5301,0.5261,0.5218,0.5204,0.5199,0.5197,0.5196,0.5201,0.5202,0.5207,0.5207,0.5206,0.5206,0.5206,0,0.5983,0.594,0.5894,0.5825,0.5785,0.5753,0.5696,0.5664,0.5618,0.5564,0.5518,0.5456,0.5402,0.5338,0.528,0.5258,0.5239,0.5245,0.5245,0.5236,0.5217,0.5226,0.5262,0.5262,0.5262,0.5262,0.5262,0.5262,0.5989,0.5944,0.5909,0.5842,0.5799,0.5746,0.5716,0.5673,0.563,0.5564,0.5519,0.5478,0.542,0.5358,0.5307,0.529,0.527,0.5282,0.5259,0.5242,0.5237,0.5232,0.524,0.5278,0.5279,0.5281,0.5281,0.5281]}]]